Location: Unspecified
(0.0000°N, 0.0000°E)
Time: 17:19:25
(UTC+00:00)

Cosmos 1602 Rocket - Pass Details

Date: 26 February 2024
Orbit: 600 x 631 km, 82.5° (Epoch: 11 April)

Event Time Altitude Azimuth Distance (km) Brightness Sun altitude
Rises 05:13:23 0° 10° (N) 2,854 7.0 -14.7°
Reaches altitude 10° 05:15:44 10° 19° (NNE) 1,948 6.2 -14.1°
Maximum altitude 05:19:42 37° 86° (E) 941 5.2 -13.2°
Drops below altitude 10° 05:23:41 10° 154° (SSE) 1,944 6.6 -12.2°
Sets 05:26:01 0° 162° (SSE) 2,847 7.3 -11.6°
